Location: Leipzig
(51.3203°N, 12.3761°E)
Time: 06:10:47
(UTC+01:00)

ISS - Pass Details

Date: 08 December 2021
Orbit: 413 x 422 km, 51.6° (Epoch: 22 January)

Event Time Altitude Azimuth Distance (km) Brightness Sun altitude
Rises 17:54:37 0° 278° (W) 2,384 1.3 -16.4°
Reaches altitude 10° 17:57:49 10° 246° (WSW) 1,511 0.4 -16.9°
Maximum altitude 17:59:08 12° 223° (SW) 1,400 -0.3 -17.1°
Drops below altitude 10° 18:00:27 10° 200° (SSW) 1,504 -0.5 -17.3°
Enters shadow 18:05:56 -7° 157° (SSE) 3,192 0.6 -18.1°
